Showing default

DEORBITSAIL, 40719

Orbit data source: Space-Track

DEORBITSAIL, 40719 is a payload satellite owned by Surrey Space Ctr (UK) in SSO that was launched on Fri, 10 Jul 2015 UTC via a PSLV-XL launch vehicle from the Sirharikota (SRI). Payload-class satellites include a variety of spacecraft equipped with specific instruments for various scientific and technological missions. These include communications satellites like Starlink; space stations such as the ISS; scientific satellites like the Hubble; Earth observation satellites from companies like Planet Labs, Umbra, and HawkEye 360; GPS; miniature CubeSats for education and research; and military/defense satellites.

Loading next visibility...
Identifier
40719, 2015-032E
Orbit
SSO
Country
Flag of UKUK
Related business
Manufacturer
Surrey Space Ctr
Mission
Non-operational Amateur Technology
Bus & Motor
CUBESAT 3U, Unknown motor
Mass
7 kg wet, 7 kg dry
Launch date (UTC)
2015-07-10 (11 years ago)
Launch vehicle
PSLV-XL
Launch site
Sirharikota (SRI)
Object type
Payload
Rocket body
Debris
Shape & HBR
Box + 1 Sail, 3.5 m
Radar Cross Section
0.039 m², Small (<0.1 m²)

Expand to show TLE details & history
Last TLE update: 5 hours ago

TLE from 5 hours ago
0 DEORBITSAIL
1 40719U 15032E   26128.16057769  .00006448  00000-0  47887-3 0  9991
2 40719  97.5918 345.7548 0013248  15.1242 345.0377 15.03300212585230
Epoch: 2026-05-08T03:51Z
TLE epoch observation values (Epoch: 2026-05-08T03:51:13.912Z)
Latitude
-0.00002°
Longitude
61.95049°
Altitude
550.914 km
Speed
7.591 km/s
True Right ascension
23h 03m 01s
True Declination
0° 00' 00"
Sunlit
Object was in daylight at epoch
Visualization orbit readout
Latitude
Unknown
Longitude
Unknown
Altitude
Unknown
Speed
Unknown
Apparent Right ascension
Unknown
Apparent Declination
Unknown
Sunlit
N/A
Visualization observer readout
Local Sidereal Time
17:18:49
Azimuth
Unknown
Elevation
Unknown
Doppler factor
Unknown
Orbital elements
Apogee altitude
562.908 km
Perigee altitude
544.541 km
Semi-major axis
6,931.861 km
Eccentricity
0.00132
Inclination
97.5918°
RAAN
345.7548°
Arg. of periapsis
15.1242°
True anomaly
344.99844°
Mean anomaly
345.0377°
Eccentric anomaly
345.01808°
Mean motion
3.7607 °/min
Orbital period
95.73 mins
BSTAR
0.00047887
Loading maneuver chart data...
Computing Atmospheric mass density...
Loading historical data...
Loading historical data...
Loading historical data...
Loading historical data...
Loading historical data...
Loading historical data...
Loading historical data...
Other satellites on launch #32 in the year 2015 (2015-07-10 UTC)

Documentation

Showing up to 5 results
|